Weather History for Fort Sill, OK

Change the Weather History Date:

Monday, January 20, 2014

  Actual Average Record
Temperature  
Mean Temperature 50 °F -  
Max Temperature 72 °F 52 °F 74 °F (1969)
Min Temperature 29 °F 25 °F 4 °F (1984)
Degree Days  
Heating Degree Days 14    
Moisture  
Dew Point 23 °F    
Average Humidity 40    
Maximum Humidity 73    
Minimum Humidity 14    
Precipitation  
Precipitation 0.00 in - - ()
Sea Level Pressure  
Sea Level Pressure 29.99 in    
Wind  
Wind Speed 9 mph (NNE)    
Max Wind Speed 31 mph    
Max Gust Speed 36 mph    
Visibility 10 miles    
Events      
Averages and records for this station are not official NWS values.
T = Trace of Precipitation, MM = Missing Value Source: NWS Daily Summary

Daily Weather History Graph

Daily Weather History Graph

Search for Another Location

Airport:

Trip Planner

Search our weather history database for the weather conditions in past years. The results will help you decide how hot, cold, wet, or windy it might be!

Date:

Astronomy

Jan. 20, 2014 Rise Set
Actual Time 7:38 AM CST 5:51 PM CST
Civil Twilight 7:11 AM CST 6:18 PM CST
Nautical Twilight 6:40 AM CST 6:48 PM CST
Astronomical Twilight 6:10 AM CST 7:19 PM CST
Moon 10:14 PM CST (1/20) 9:51 AM CST (1/20)
Length of Visible Light 11h 06m
Length of Day
10h 12m
Waning Gibbous, 82% of the Moon is Illuminated
Jan 20
Waning Gibbous
Jan 23
Last Quarter
Jan 30
New
Feb 6
First Quarter
Feb 14
Full

Hourly Weather History & Observations

Time (CST) Temp. Windchill Dew Point Humidity Pressure Visibility Wind Dir Wind Speed Gust Speed Precip Events Conditions
12:58 AM 40.3 °F - 22.6 °F 49% 29.91 in 10.0 mi SSE 2.3 mph - N/A   Clear
1:58 AM 37.6 °F - 23.2 °F 56% 29.87 in 10.0 mi SE 1.2 mph - N/A   Clear
2:58 AM 35.8 °F - 23.0 °F 60% 29.87 in 10.0 mi Calm Calm - N/A   Clear
3:58 AM 35.1 °F 30.1 °F 23.2 °F 62% 29.86 in 10.0 mi SSE 5.8 mph - N/A   Clear
4:58 AM 35.8 °F 31.9 °F 23.2 °F 60% 29.84 in 10.0 mi South 4.6 mph - N/A   Clear
5:58 AM 34.9 °F - 22.8 °F 61% 29.84 in 10.0 mi Calm Calm - N/A   Clear
6:58 AM 32.9 °F - 22.8 °F 66% 29.86 in 10.0 mi Calm Calm - N/A   Clear
7:58 AM 29.7 °F 23.7 °F 21.9 °F 73% 29.88 in 10.0 mi North 5.8 mph - N/A   Clear
8:58 AM 35.6 °F 30.7 °F 25.7 °F 67% 29.88 in 10.0 mi NNE 5.8 mph - N/A   Clear
9:58 AM 44.8 °F 41.6 °F 25.2 °F 46% 29.91 in 10.0 mi NNE 5.8 mph - N/A   Clear
10:58 AM 57.0 °F - 22.8 °F 27% 29.91 in 10.0 mi NNE 13.8 mph - N/A   Clear
11:58 AM 61.9 °F - 25.0 °F 25% 29.91 in 10.0 mi NNE 12.7 mph - N/A   Clear
12:58 PM 69.8 °F - 25.3 °F 19% 29.88 in 10.0 mi North 17.3 mph 21.9 mph N/A   Clear
1:58 PM 72.7 °F - 21.2 °F 14% 29.88 in 10.0 mi North 21.9 mph 27.6 mph N/A   Clear
2:58 PM 70.2 °F - 21.9 °F 16% 29.92 in 10.0 mi North 25.3 mph 34.5 mph N/A   Clear
3:01 PM 69.8 °F - 23.0 °F 17% 29.93 in 10.0 mi North 29.9 mph 35.7 mph N/A   Squalls
3:58 PM 63.0 °F - 25.9 °F 24% 29.99 in 10.0 mi North 31.1 mph 35.7 mph N/A   Clear
4:58 PM 61.2 °F - 21.6 °F 22% 30.05 in 10.0 mi North 25.3 mph 33.4 mph N/A   Clear
5:58 PM 57.2 °F - 20.8 °F 24% 30.10 in 10.0 mi NNE 26.5 mph 34.5 mph N/A   Clear
6:58 PM 54.1 °F - 20.7 °F 27% 30.17 in 10.0 mi North 16.1 mph - N/A   Clear
7:58 PM 50.9 °F - 21.0 °F 31% 30.22 in 10.0 mi North 16.1 mph - N/A   Clear
8:58 PM 48.6 °F - 21.7 °F 35% 30.25 in 10.0 mi North 12.7 mph - N/A   Clear
9:58 PM 44.4 °F 39.5 °F 22.3 °F 42% 30.27 in 10.0 mi North 9.2 mph - N/A   Clear
10:58 PM 43.0 °F 38.2 °F 21.9 °F 43% 30.29 in 10.0 mi NNW 8.1 mph - N/A   Clear
11:58 PM 41.4 °F 35.7 °F 21.2 °F 45% 30.31 in 10.0 mi NNW 9.2 mph - N/A   Clear